Location: Alpine
(43.1636°N, 111.0180°W)
Time: 17:31:11
(UTC+00:00)

Tiangong - Visible Passes

Search period start: 24 January 2022 00:00
Search period end: 03 February 2022 00:00
Orbit: 383 x 386 km, 41.5° (Epoch: 23 January)

Date Brightness Start Highest point End Pass type
(mag) Time Alt. Az. Time Alt. Az. Time Alt. Az.
26 Jan 3.8 02:26:42 10° S 02:27:06 12° S 02:27:06 12° S visible
27 Jan 4.4 03:02:33 10° SW 03:02:40 11° SW 03:02:40 11° SW visible
28 Jan 2.6 02:03:13 10° SSW 02:05:51 24° SSE 02:05:55 24° SSE visible
29 Jan 3.3 01:04:12 10° SSW 01:06:15 16° SSE 01:08:18 10° ESE visible
29 Jan 3.0 02:39:35 10° WSW 02:41:18 27° SW 02:41:18 27° SW visible
30 Jan 2.1 01:40:00 10° SW 01:42:55 35° SSE 01:44:26 22° ESE visible
30 Jan 4.6 03:16:24 10° W 03:16:38 12° W 03:16:38 12° W visible
31 Jan 1.3 02:16:37 10° WSW 02:19:42 59° S 02:19:42 59° S visible
01 Feb 1.7 01:16:52 10° WSW 01:19:56 48° SSE 01:22:44 12° E visible
01 Feb 3.4 02:53:28 10° W 02:54:56 24° W 02:54:56 24° W visible
02 Feb 1.2 01:53:36 10° W 01:56:45 65° S 01:57:57 33° ESE visible
